Location: Dortmund
(51.5019°N, 7.6520°E)
Time: 14:55:38
(UTC+02:00)

ISS - Pass Details

Date: 04 January 2018
Orbit: 402 x 408 km, 51.6° (Epoch: 20 July)

Event Time Altitude Azimuth Distance (km) Brightness Sun altitude
Exits shadow 05:29:30 22° 89° (E) 960 -1.2 -27.5°
Drops below altitude 10° 05:30:54 10° 81° (E) 1,501 0.0 -27.3°
Sets 05:33:02 0° 77° (ENE) 2,371 1.2 -27.0°
